| time (UTC) | temp F | wind direction | speed MPH | gust MPH | rain 1hr in | rain 24hr in | rain mn in | humidity % | barometer mb |
| 20260509122730 | 51 | 221 | 4.0 | 5.0 | 0.00 | 0.00 | 0.00 | 65 | 1008.7 |
| 20260509122242 | 51 | 227 | 4.0 | 6.0 | 0.00 | 0.00 | 0.00 | 65 | 1008.7 |
| 20260509121722 | 51 | 211 | 5.0 | 6.0 | 0.00 | 0.00 | 0.00 | 64 | 1008.6 |
| 20260509121546 | 50 | 216 | 4.0 | 6.0 | 0.00 | 0.00 | 0.00 | 64 | 1007.6 |
| 20260509121236 | 50 | 224 | 4.0 | 6.0 | 0.00 | 0.00 | 0.00 | 64 | 1008.6 |
| 20260509120747 | 50 | 227 | 4.0 | 7.0 | 0.00 | 0.00 | 0.00 | 64 | 1008.6 |
| 20260509120238 | 50 | 225 | 5.0 | 7.0 | 0.00 | 0.00 | 0.00 | 64 | 1008.7 |
| 20260509120037 | 49 | 230 | 4.0 | 7.0 | 0.00 | 0.00 | 0.00 | 64 | 1007.6 |
| 20260509115751 | 49 | 219 | 5.0 | 6.0 | 0.00 | 0.00 | 0.00 | 65 | 1008.6 |
| 20260509115242 | 49 | 215 | 4.0 | 6.0 | 0.00 | 0.00 | 0.00 | 64 | 1008.4 |
| 20260509114725 | 49 | 215 | 4.0 | 6.0 | 0.00 | 0.00 | 0.00 | 65 | 1008.4 |
| 20260509114517 | 48 | 207 | 3.0 | 6.0 | 0.00 | 0.00 | 0.00 | 65 | 1007.3 |
| 20260509114255 | 49 | 207 | 4.0 | 6.0 | 0.00 | 0.00 | 0.00 | 64 | 1008.3 |
| 20260509113745 | 49 | 207 | 5.0 | 6.0 | 0.00 | 0.00 | 0.00 | 64 | 1008.3 |
| 20260509113229 | 49 | 221 | 5.0 | 6.0 | 0.00 | 0.00 | 0.00 | 65 | 1008.3 |
| 20260509113005 | 48 | 214 | 4.0 | 6.0 | 0.00 | 0.00 | 0.00 | 64 | 1007.3 |
| 20260509112740 | 49 | 214 | 4.0 | 5.0 | 0.00 | 0.00 | 0.00 | 64 | 1008.3 |
| 20260509112222 | 49 | 219 | 4.0 | 5.0 | 0.00 | 0.00 | 0.00 | 64 | 1008.2 |
| 20260509111735 | 49 | 224 | 4.0 | 5.0 | 0.00 | 0.00 | 0.00 | 63 | 1008.2 |
| 20260509111512 | 48 | 221 | 3.0 | 5.0 | 0.00 | 0.00 | 0.00 | 63 | 1007.1 |
| 20260509111248 | 49 | 227 | 3.0 | 5.0 | 0.00 | 0.00 | 0.00 | 63 | 1008.1 |
| 20260509110732 | 49 | 227 | 3.0 | 5.0 | 0.00 | 0.00 | 0.00 | 63 | 1008.0 |
| 20260509110305 | 49 | 225 | 3.0 | 5.0 | 0.00 | 0.00 | 0.00 | 64 | 1008.1 |
| 20260509110031 | 48 | 236 | 3.0 | 6.0 | 0.00 | 0.00 | 0.00 | 64 | 1007.0 |
| 20260509105727 | 49 | 234 | 4.0 | 6.0 | 0.00 | 0.00 | 0.00 | 64 | 1008.2 |
| 20260509105257 | 49 | 221 | 4.0 | 6.0 | 0.00 | 0.00 | 0.00 | 65 | 1008.2 |
| 20260509104808 | 49 | 225 | 4.0 | 6.0 | 0.00 | 0.00 | 0.00 | 65 | 1008.2 |
| 20260509104556 | 48 | 220 | 4.0 | 6.0 | 0.00 | 0.00 | 0.00 | 65 | 1007.1 |
| 20260509104234 | 49 | 217 | 4.0 | 6.0 | 0.00 | 0.00 | 0.00 | 66 | 1008.2 |
| 20260509103741 | 49 | 221 | 5.0 | 6.0 | 0.00 | 0.00 | 0.00 | 66 | 1008.2 |
| 20260509103223 | 49 | 218 | 5.0 | 7.0 | 0.00 | 0.00 | 0.00 | 66 | 1008.2 |
| 20260509103056 | 49 | 217 | 4.0 | 7.0 | 0.00 | 0.00 | 0.00 | 66 | 1007.1 |
| 20260509102734 | 49 | 220 | 5.0 | 7.0 | 0.00 | 0.00 | 0.00 | 66 | 1008.1 |
| 20260509102306 | 50 | 215 | 6.0 | 8.0 | 0.00 | 0.00 | 0.00 | 65 | 1008.1 |
| 20260509101726 | 50 | 227 | 5.0 | 8.0 | 0.00 | 0.00 | 0.00 | 65 | 1008.2 |
| 20260509101508 | 49 | 227 | 5.0 | 8.0 | 0.00 | 0.00 | 0.00 | 64 | 1007.1 |
| 20260509101240 | 50 | 233 | 6.0 | 8.0 | 0.00 | 0.00 | 0.00 | 64 | 1008.2 |
| 20260509100721 | 50 | 228 | 5.0 | 8.0 | 0.00 | 0.00 | 0.00 | 64 | 1008.1 |
| 20260509100230 | 50 | 224 | 5.0 | 7.0 | 0.00 | 0.00 | 0.00 | 64 | 1008.1 |
| 20260509100012 | 50 | 221 | 4.0 | 7.0 | 0.00 | 0.00 | 0.00 | 64 | 1007.1 |
| 20260509095739 | 50 | 220 | 5.0 | 7.0 | 0.00 | 0.00 | 0.00 | 63 | 1008.2 |
| 20260509095222 | 50 | 215 | 5.0 | 7.0 | 0.00 | 0.00 | 0.00 | 62 | 1008.2 |
| 20260509094733 | 50 | 238 | 6.0 | 7.0 | 0.00 | 0.00 | 0.00 | 60 | 1008.3 |
| 20260509094511 | 50 | 227 | 4.0 | 6.0 | 0.00 | 0.00 | 0.00 | 60 | 1007.2 |
| 20260509094246 | 50 | 215 | 4.0 | 6.0 | 0.00 | 0.00 | 0.00 | 59 | 1008.3 |
| 20260509093727 | 51 | 215 | 4.0 | 6.0 | 0.00 | 0.00 | 0.00 | 59 | 1008.2 |
| 20260509093240 | 51 | 215 | 4.0 | 7.0 | 0.00 | 0.00 | 0.00 | 58 | 1008.2 |
| 20260509093015 | 51 | 208 | 4.0 | 7.0 | 0.00 | 0.00 | 0.00 | 58 | 1007.2 |
| 20260509092806 | 51 | 211 | 5.0 | 7.0 | 0.00 | 0.00 | 0.00 | 57 | 1008.3 |
| 20260509092227 | 52 | 186 | 6.0 | 7.0 | 0.00 | 0.00 | 0.00 | 56 | 1008.3 |
| 20260509091738 | 52 | 207 | 5.0 | 6.0 | 0.00 | 0.00 | 0.00 | 56 | 1008.2 |
| 20260509091603 | 51 | 211 | 4.0 | 6.0 | 0.00 | 0.00 | 0.00 | 56 | 1007.1 |
| 20260509091250 | 52 | 211 | 5.0 | 6.0 | 0.00 | 0.00 | 0.00 | 56 | 1008.2 |
| 20260509090731 | 52 | 217 | 5.0 | 6.0 | 0.00 | 0.00 | 0.00 | 56 | 1008.2 |
| 20260509090242 | 52 | 203 | 5.0 | 6.0 | 0.00 | 0.00 | 0.00 | 55 | 1008.2 |
| 20260509090042 | 52 | 193 | 4.0 | 5.0 | 0.00 | 0.00 | 0.00 | 54 | 1007.0 |
| 20260509085723 | 53 | 197 | 5.0 | 5.0 | 0.00 | 0.00 | 0.00 | 53 | 1008.1 |
| 20260509085235 | 54 | 202 | 3.0 | 4.0 | 0.00 | 0.00 | 0.00 | 52 | 1008.2 |
| 20260509084802 | 55 | 209 | 3.0 | 4.0 | 0.00 | 0.00 | 0.00 | 51 | 1008.1 |
| 20260509084516 | 54 | 238 | 2.0 | 4.0 | 0.00 | 0.00 | 0.00 | 50 | 1007.0 |
| 20260509084227 | 55 | 253 | 3.0 | 4.0 | 0.00 | 0.00 | 0.00 | 50 | 1008.0 |
| 20260509083736 | 55 | 275 | 3.0 | 4.0 | 0.00 | 0.00 | 0.00 | 50 | 1008.0 |
| 20260509083249 | 55 | 281 | 3.0 | 4.0 | 0.00 | 0.00 | 0.00 | 50 | 1007.9 |
| 20260509083031 | 55 | 288 | 2.0 | 4.0 | 0.00 | 0.00 | 0.00 | 49 | 1006.8 |
| 20260509082729 | 55 | 283 | 3.0 | 4.0 | 0.00 | 0.00 | 0.00 | 49 | 1008.0 |
| 20260509082258 | 56 | 295 | 3.0 | 5.0 | 0.00 | 0.00 | 0.00 | 49 | 1007.9 |
| 20260509081749 | 56 | 287 | 3.0 | 5.0 | 0.00 | 0.00 | 0.00 | 48 | 1007.9 |
| 20260509081601 | 55 | 294 | 3.0 | 5.0 | 0.00 | 0.00 | 0.00 | 48 | 1006.8 |
| 20260509081230 | 56 | 297 | 3.0 | 4.0 | 0.00 | 0.00 | 0.00 | 48 | 1007.9 |
| 20260509080739 | 56 | 250 | 3.0 | 4.0 | 0.00 | 0.00 | 0.00 | 48 | 1007.9 |
| 20260509080223 | 56 | 250 | 3.0 | 4.0 | 0.00 | 0.00 | 0.00 | 48 | 1007.9 |
| 20260509080005 | 56 | 211 | 2.0 | 4.0 | 0.00 | 0.00 | 0.00 | 48 | 1006.8 |
| 20260509075734 | 57 | 211 | 2.0 | 4.0 | 0.00 | 0.00 | 0.00 | 47 | 1007.9 |
| 20260509075246 | 57 | 243 | 3.0 | 5.0 | 0.00 | 0.00 | 0.00 | 46 | 1008.0 |
| 20260509074728 | 58 | 300 | 3.0 | 5.0 | 0.00 | 0.00 | 0.00 | 45 | 1007.9 |
| 20260509074602 | 57 | 303 | 3.0 | 5.0 | 0.00 | 0.00 | 0.00 | 45 | 1006.8 |
| 20260509074300 | 58 | 314 | 4.0 | 5.0 | 0.00 | 0.00 | 0.00 | 44 | 1008.0 |
| 20260509073745 | 59 | 311 | 3.0 | 5.0 | 0.00 | 0.00 | 0.00 | 44 | 1007.9 |
| 20260509073225 | 59 | 300 | 3.0 | 5.0 | 0.00 | 0.00 | 0.00 | 43 | 1008.0 |
| 20260509073048 | 59 | 305 | 2.0 | 4.0 | 0.00 | 0.00 | 0.00 | 43 | 1006.9 |
| 20260509072737 | 59 | 340 | 2.0 | 5.0 | 0.00 | 0.00 | 0.00 | 42 | 1007.9 |
| 20260509072246 | 59 | 315 | 2.0 | 5.0 | 0.00 | 0.00 | 0.00 | 42 | 1008.0 |
| 20260509071730 | 60 | 333 | 2.0 | 8.0 | 0.00 | 0.00 | 0.00 | 42 | 1008.0 |
| 20260509071526 | 59 | 337 | 2.0 | 8.0 | 0.00 | 0.00 | 0.00 | 42 | 1006.8 |
| 20260509071241 | 60 | 319 | 4.0 | 8.0 | 0.00 | 0.00 | 0.00 | 42 | 1008.0 |
| 20260509070810 | 60 | 310 | 5.0 | 10.0 | 0.00 | 0.00 | 0.00 | 42 | 1008.0 |
| 20260509070227 | 60 | 321 | 6.0 | 10.0 | 0.00 | 0.00 | 0.00 | 42 | 1008.0 |
| 20260509065739 | 60 | 325 | 6.0 | 10.0 | 0.00 | 0.00 | 0.00 | 42 | 1008.0 |
| 20260509065221 | 61 | 330 | 6.0 | 9.0 | 0.00 | 0.00 | 0.00 | 41 | 1008.1 |
| 20260509064732 | 61 | 334 | 7.0 | 10.0 | 0.00 | 0.00 | 0.00 | 41 | 1008.1 |
| 20260509064536 | 60 | 306 | 7.0 | 10.0 | 0.00 | 0.00 | 0.00 | 41 | 1007.1 |
| 20260509064245 | 61 | 318 | 7.0 | 10.0 | 0.00 | 0.00 | 0.00 | 41 | 1008.2 |
| 20260509063729 | 61 | 333 | 5.0 | 9.0 | 0.00 | 0.00 | 0.00 | 41 | 1008.2 |
| 20260509063300 | 62 | 301 | 6.0 | 10.0 | 0.00 | 0.00 | 0.00 | 40 | 1008.2 |
| 20260509063011 | 61 | 329 | 6.0 | 10.0 | 0.00 | 0.00 | 0.00 | 40 | 1007.1 |
| 20260509062748 | 62 | 328 | 6.0 | 10.0 | 0.00 | 0.00 | 0.00 | 40 | 1008.1 |
| 20260509062238 | 62 | 338 | 7.0 | 12.0 | 0.00 | 0.00 | 0.00 | 40 | 1008.1 |
| 20260509061748 | 62 | 340 | 7.0 | 12.0 | 0.00 | 0.00 | 0.00 | 40 | 1008.1 |
| 20260509061607 | 62 | 338 | 8.0 | 12.0 | 0.00 | 0.00 | 0.00 | 40 | 1007.0 |
| 20260509061231 | 62 | 349 | 9.0 | 13.0 | 0.00 | 0.00 | 0.00 | 40 | 1008.1 |
| 20260509060801 | 62 | 344 | 8.0 | 13.0 | 0.00 | 0.00 | 0.00 | 40 | 1008.2 |
| 20260509060311 | 62 | 329 | 9.0 | 14.0 | 0.00 | 0.00 | 0.00 | 40 | 1008.1 |
| 20260509060012 | 62 | 327 | 8.0 | 14.0 | 0.00 | 0.00 | 0.00 | 40 | 1007.0 |
| 20260509055728 | 62 | 347 | 9.0 | 14.0 | 0.00 | 0.00 | 0.00 | 40 | 1008.1 |
| 20260509055240 | 62 | 340 | 9.0 | 13.0 | 0.00 | 0.00 | 0.00 | 40 | 1008.1 |
| 20260509054724 | 63 | 329 | 9.0 | 13.0 | 0.00 | 0.00 | 0.00 | 40 | 1008.0 |
| 20260509054509 | 62 | 326 | 8.0 | 14.0 | 0.00 | 0.00 | 0.00 | 40 | 1007.0 |
| 20260509054420 | 63 | 323 | 9.0 | 14.0 | 0.00 | 0.00 | 0.00 | 40 | 1008.0 |
| 20260509053727 | 62 | 304 | 10.0 | 13.0 | 0.00 | 0.00 | 0.00 | 40 | 1008.0 |
| 20260509053238 | 62 | 330 | 9.0 | 13.0 | 0.00 | 0.00 | 0.00 | 40 | 1007.9 |
| 20260509053052 | 62 | 331 | 9.0 | 13.0 | 0.00 | 0.00 | 0.00 | 40 | 1006.8 |
| 20260509052721 | 62 | 336 | 8.0 | 11.0 | 0.00 | 0.00 | 0.00 | 41 | 1007.9 |
| 20260509052250 | 62 | 327 | 8.0 | 11.0 | 0.00 | 0.00 | 0.00 | 41 | 1007.9 |
| 20260509051740 | 62 | 318 | 7.0 | 11.0 | 0.00 | 0.00 | 0.00 | 40 | 1007.8 |
| 20260509051513 | 62 | 317 | 7.0 | 11.0 | 0.00 | 0.00 | 0.00 | 41 | 1006.7 |
| 20260509051224 | 62 | 311 | 8.0 | 13.0 | 0.00 | 0.00 | 0.00 | 40 | 1007.8 |
| 20260509050734 | 62 | 326 | 8.0 | 13.0 | 0.00 | 0.00 | 0.00 | 41 | 1007.7 |
| 20260509050245 | 62 | 311 | 9.0 | 12.0 | 0.00 | 0.00 | 0.00 | 41 | 1007.7 |
| 20260509050013 | 62 | 314 | 8.0 | 12.0 | 0.00 | 0.00 | 0.00 | 41 | 1006.8 |
| 20260509045729 | 63 | 310 | 7.0 | 10.0 | 0.00 | 0.00 | 0.00 | 41 | 1007.8 |
| 20260509045240 | 63 | 311 | 7.0 | 9.0 | 0.00 | 0.00 | 0.00 | 41 | 1007.7 |
| 20260509044725 | 63 | 298 | 7.0 | 9.0 | 0.00 | 0.00 | 0.00 | 41 | 1007.7 |
| 20260509044517 | 62 | 315 | 7.0 | 9.0 | 0.00 | 0.00 | 0.00 | 40 | 1006.6 |
| 20260509044234 | 63 | 321 | 6.0 | 10.0 | 0.00 | 0.00 | 0.00 | 40 | 1007.7 |
| 20260509043805 | 63 | 310 | 6.0 | 10.0 | 0.00 | 0.00 | 0.00 | 39 | 1007.6 |
| 20260509043226 | 62 | 350 | 6.0 | 11.0 | 0.00 | 0.00 | 0.00 | 40 | 1007.5 |
| 20260509043100 | 62 | 312 | 6.0 | 11.0 | 0.00 | 0.00 | 0.00 | 40 | 1006.5 |
| 20260509042739 | 62 | 325 | 6.0 | 11.0 | 0.00 | 0.00 | 0.00 | 40 | 1007.6 |
| 20260509042248 | 62 | 299 | 5.0 | 8.0 | 0.00 | 0.00 | 0.00 | 40 | 1007.6 |
| 20260509041733 | 62 | 316 | 5.0 | 9.0 | 0.00 | 0.00 | 0.00 | 41 | 1007.6 |
| 20260509041507 | 61 | 319 | 4.0 | 9.0 | 0.00 | 0.00 | 0.00 | 41 | 1006.6 |
| 20260509041244 | 62 | 298 | 5.0 | 9.0 | 0.00 | 0.00 | 0.00 | 41 | 1007.7 |
| 20260509040725 | 62 | 306 | 5.0 | 7.0 | 0.00 | 0.00 | 0.00 | 41 | 1007.5 |
| 20260509040233 | 62 | 302 | 4.0 | 7.0 | 0.00 | 0.00 | 0.00 | 42 | 1007.7 |
| 20260509040005 | 62 | 319 | 2.0 | 4.0 | 0.00 | 0.00 | 0.00 | 42 | 1006.6 |
| 20260509035804 | 62 | 319 | 3.0 | 5.0 | 0.00 | 0.00 | 0.00 | 42 | 1007.6 |
| 20260509035247 | 62 | 5 | 1.0 | 5.0 | 0.00 | 0.00 | 0.00 | 41 | 1007.6 |
| 20260509034730 | 62 | 293 | 3.0 | 6.0 | 0.00 | 0.00 | 0.00 | 41 | 1007.5 |
| 20260509034545 | 62 | 269 | 4.0 | 6.0 | 0.00 | 0.00 | 0.00 | 41 | 1006.4 |
| 20260509034242 | 62 | 259 | 4.0 | 6.0 | 0.00 | 0.00 | 0.00 | 42 | 1007.5 |
| 20260509033753 | 63 | 346 | 3.0 | 7.0 | 0.00 | 0.00 | 0.00 | 43 | 1007.6 |
| 20260509033233 | 63 | 272 | 3.0 | 7.0 | 0.00 | 0.00 | 0.00 | 42 | 1007.4 |
| 20260509033012 | 63 | 257 | 3.0 | 7.0 | 0.00 | 0.00 | 0.00 | 42 | 1006.3 |
| 20260509032739 | 64 | 242 | 4.0 | 7.0 | 0.00 | 0.00 | 0.00 | 43 | 1007.4 |
| 20260509032223 | 64 | 206 | 2.0 | 4.0 | 0.00 | 0.00 | 0.00 | 42 | 1007.4 |
| 20260509031734 | 65 | 206 | 2.0 | 4.0 | 0.00 | 0.00 | 0.00 | 42 | 1007.3 |
| 20260509031514 | 64 | 206 | 2.0 | 4.0 | 0.00 | 0.00 | 0.00 | 42 | 1006.2 |
| 20260509031242 | 65 | 206 | 3.0 | 5.0 | 0.00 | 0.00 | 0.00 | 43 | 1007.3 |
| 20260509030726 | 65 | 206 | 3.0 | 5.0 | 0.00 | 0.00 | 0.00 | 43 | 1007.2 |
| 20260509030233 | 65 | 206 | 4.0 | 6.0 | 0.00 | 0.00 | 0.00 | 42 | 1007.1 |
| 20260509030014 | 65 | 206 | 4.0 | 6.0 | 0.00 | 0.00 | 0.00 | 42 | 1006.0 |
| 20260509025744 | 66 | 206 | 4.0 | 6.0 | 0.00 | 0.00 | 0.00 | 42 | 1007.0 |
| 20260509025229 | 66 | 206 | 4.0 | 7.0 | 0.00 | 0.00 | 0.00 | 42 | 1007.0 |
| 20260509024740 | 66 | 196 | 6.0 | 7.0 | 0.00 | 0.00 | 0.00 | 41 | 1007.0 |
| 20260509024554 | 66 | 187 | 4.0 | 6.0 | 0.00 | 0.00 | 0.00 | 41 | 1006.0 |
| 20260509024253 | 67 | 203 | 4.0 | 5.0 | 0.00 | 0.00 | 0.00 | 40 | 1007.0 |
| 20260509023801 | 67 | 203 | 4.0 | 5.0 | 0.00 | 0.00 | 0.00 | 40 | 1007.0 |
| 20260509023224 | 67 | 203 | 4.0 | 5.0 | 0.00 | 0.00 | 0.00 | 40 | 1006.9 |
| 20260509023006 | 67 | 203 | 3.0 | 6.0 | 0.00 | 0.00 | 0.00 | 40 | 1005.8 |
| 20260509022736 | 68 | 203 | 3.0 | 6.0 | 0.00 | 0.00 | 0.00 | 39 | 1006.9 |
| 20260509022241 | 68 | 203 | 4.0 | 6.0 | 0.00 | 0.00 | 0.00 | 39 | 1006.8 |
| 20260509021722 | 68 | 199 | 4.0 | 5.0 | 0.00 | 0.00 | 0.00 | 38 | 1006.7 |
| 20260509021508 | 68 | 199 | 3.0 | 6.0 | 0.00 | 0.00 | 0.00 | 38 | 1005.6 |
| 20260509021235 | 69 | 194 | 3.0 | 6.0 | 0.00 | 0.00 | 0.00 | 38 | 1006.6 |
| 20260509020745 | 69 | 198 | 4.0 | 6.0 | 0.00 | 0.00 | 0.00 | 37 | 1006.7 |
| 20260509020227 | 69 | 203 | 4.0 | 5.0 | 0.00 | 0.00 | 0.00 | 36 | 1006.6 |
| 20260509020005 | 69 | 201 | 3.0 | 5.0 | 0.00 | 0.00 | 0.00 | 36 | 1005.5 |
| 20260509015737 | 69 | 194 | 4.0 | 5.0 | 0.00 | 0.00 | 0.00 | 35 | 1006.5 |
| 20260509015247 | 70 | 205 | 3.0 | 5.0 | 0.00 | 0.00 | 0.00 | 35 | 1006.4 |
| 20260509014725 | 70 | 204 | 3.0 | 5.0 | 0.00 | 0.00 | 0.00 | 35 | 1006.4 |
| 20260509014507 | 70 | 204 | 3.0 | 5.0 | 0.00 | 0.00 | 0.00 | 35 | 1005.3 |
| 20260509014233 | 70 | 201 | 3.0 | 4.0 | 0.00 | 0.00 | 0.00 | 35 | 1006.4 |
| 20260509013743 | 71 | 236 | 3.0 | 4.0 | 0.00 | 0.00 | 0.00 | 34 | 1006.4 |
| 20260509013223 | 71 | 236 | 3.0 | 5.0 | 0.00 | 0.00 | 0.00 | 33 | 1006.3 |
| 20260509013003 | 71 | 236 | 2.0 | 5.0 | 0.00 | 0.00 | 0.00 | 32 | 1005.2 |
| 20260509012754 | 72 | 237 | 3.0 | 5.0 | 0.00 | 0.00 | 0.00 | 33 | 1006.3 |
| 20260509012244 | 72 | 237 | 3.0 | 8.0 | 0.00 | 0.00 | 0.00 | 33 | 1006.3 |
| 20260509011726 | 73 | 277 | 4.0 | 8.0 | 0.00 | 0.00 | 0.00 | 32 | 1006.3 |
| 20260509011542 | 72 | 246 | 5.0 | 8.0 | 0.00 | 0.00 | 0.00 | 32 | 1005.2 |
| 20260509011238 | 73 | 282 | 3.0 | 7.0 | 0.00 | 0.00 | 0.00 | 32 | 1006.3 |
| 20260509010744 | 73 | 306 | 3.0 | 9.0 | 0.00 | 0.00 | 0.00 | 32 | 1006.1 |
| 20260509010225 | 74 | 251 | 6.0 | 10.0 | 0.00 | 0.00 | 0.00 | 32 | 1006.0 |
| 20260509010046 | 74 | 249 | 6.0 | 10.0 | 0.00 | 0.00 | 0.00 | 31 | 1004.9 |
| 20260509005736 | 74 | 223 | 6.0 | 10.0 | 0.00 | 0.00 | 0.00 | 31 | 1006.0 |
| 20260509005307 | 75 | 226 | 5.0 | 10.0 | 0.00 | 0.00 | 0.00 | 31 | 1005.9 |
| 20260509004727 | 75 | 242 | 8.0 | 11.0 | 0.00 | 0.00 | 0.00 | 30 | 1005.9 |
| 20260509004534 | 75 | 254 | 7.0 | 10.0 | 0.00 | 0.00 | 0.00 | 31 | 1004.8 |
| 20260509004241 | 75 | 238 | 7.0 | 10.0 | 0.00 | 0.00 | 0.00 | 31 | 1005.9 |
| 20260509003724 | 75 | 248 | 6.0 | 10.0 | 0.00 | 0.00 | 0.00 | 31 | 1005.9 |
| 20260509003229 | 75 | 215 | 3.0 | 9.0 | 0.00 | 0.00 | 0.00 | 32 | 1005.9 |
| 20260509003005 | 75 | 215 | 5.0 | 9.0 | 0.00 | 0.00 | 0.00 | 32 | 1004.8 |
| 20260509002739 | 75 | 207 | 6.0 | 10.0 | 0.00 | 0.00 | 0.00 | 31 | 1005.8 |
| 20260509002248 | 76 | 231 | 7.0 | 10.0 | 0.00 | 0.00 | 0.00 | 31 | 1005.8 |
| 20260509001731 | 76 | 209 | 8.0 | 11.0 | 0.00 | 0.00 | 0.00 | 31 | 1005.8 |
| 20260509001504 | 76 | 214 | 6.0 | 12.0 | 0.00 | 0.00 | 0.00 | 32 | 1004.7 |
| 20260509001302 | 76 | 216 | 7.0 | 14.0 | 0.00 | 0.00 | 0.00 | 31 | 1005.8 |
| 20260509000749 | 77 | 205 | 9.0 | 14.0 | 0.00 | 0.00 | 0.00 | 30 | 1005.8 |
| 20260509000233 | 77 | 178 | 7.0 | 11.0 | 0.00 | 0.00 | 0.00 | 32 | 1005.8 |
| 20260509000046 | 76 | 210 | 7.0 | 11.0 | 0.00 | 0.00 | 0.00 | 31 | 1004.8 |
| 20260508235739 | 76 | 209 | 8.0 | 12.0 | 0.00 | 0.00 | 0.00 | 30 | 1005.8 |
| 20260508235222 | 77 | 226 | 8.0 | 17.0 | 0.00 | 0.00 | 0.00 | 30 | 1005.9 |
| 20260508234732 | 77 | 191 | 8.0 | 17.0 | 0.00 | 0.00 | 0.00 | 30 | 1005.9 |
| 20260508234554 | 76 | 201 | 8.0 | 17.0 | 0.00 | 0.00 | 0.00 | 31 | 1004.9 |
| 20260508234247 | 77 | 212 | 11.0 | 17.0 | 0.00 | 0.00 | 0.00 | 31 | 1006.1 |
| 20260508233725 | 76 | 199 | 8.0 | 15.0 | 0.00 | 0.00 | 0.00 | 31 | 1006.0 |
| 20260508233255 | 76 | 221 | 7.0 | 15.0 | 0.00 | 0.00 | 0.00 | 30 | 1006.0 |
| 20260508233030 | 76 | 179 | 7.0 | 15.0 | 0.00 | 0.00 | 0.00 | 30 | 1004.9 |
| 20260508232745 | 76 | 217 | 8.0 | 13.0 | 0.00 | 0.00 | 0.00 | 29 | 1006.0 |
| 20260508232251 | 77 | 194 | 8.0 | 16.0 | 0.00 | 0.00 | 0.00 | 29 | 1006.0 |
| 20260508231742 | 78 | 205 | 10.0 | 16.0 | 0.00 | 0.00 | 0.00 | 29 | 1006.0 |
| 20260508231621 | 78 | 186 | 11.0 | 16.0 | 0.00 | 0.00 | 0.00 | 29 | 1004.9 |
| 20260508231228 | 78 | 178 | 10.0 | 16.0 | 0.00 | 0.00 | 0.00 | 29 | 1006.0 |
| 20260508230738 | 78 | 192 | 9.0 | 13.0 | 0.00 | 0.00 | 0.00 | 29 | 1006.1 |
| 20260508230249 | 78 | 189 | 9.0 | 14.0 | 0.00 | 0.00 | 0.00 | 28 | 1006.2 |
| 20260508230021 | 78 | 165 | 10.0 | 14.0 | 0.00 | 0.00 | 0.00 | 28 | 1005.1 |
| 20260508225755 | 78 | 201 | 9.0 | 14.0 | 0.00 | 0.00 | 0.00 | 31 | 1006.2 |
| 20260508225241 | 78 | 224 | 7.0 | 11.0 | 0.00 | 0.00 | 0.00 | 30 | 1006.2 |
| 20260508224723 | 78 | 203 | 8.0 | 12.0 | 0.00 | 0.00 | 0.00 | 29 | 1006.3 |
| 20260508224526 | 77 | 219 | 8.0 | 12.0 | 0.00 | 0.00 | 0.00 | 27 | 1005.2 |
| 20260508224237 | 78 | 229 | 8.0 | 12.0 | 0.00 | 0.00 | 0.00 | 27 | 1006.3 |
| 20260508223748 | 78 | 235 | 7.0 | 13.0 | 0.00 | 0.00 | 0.00 | 29 | 1006.3 |
| 20260508223230 | 78 | 209 | 9.0 | 13.0 | 0.00 | 0.00 | 0.00 | 29 | 1006.3 |
| 20260508223037 | 77 | 178 | 9.0 | 20.0 | 0.00 | 0.00 | 0.00 | 30 | 1005.2 |
| 20260508222742 | 77 | 171 | 10.0 | 20.0 | 0.00 | 0.00 | 0.00 | 32 | 1006.3 |
| 20260508222224 | 77 | 219 | 14.0 | 26.0 | 0.00 | 0.00 | 0.00 | 29 | 1006.3 |
| 20260508221734 | 77 | 227 | 16.0 | 26.0 | 0.00 | 0.00 | 0.00 | 28 | 1006.3 |
| 20260508221518 | 77 | 232 | 13.0 | 24.0 | 0.00 | 0.00 | 0.00 | 29 | 1005.2 |
| 20260508221243 | 77 | 278 | 15.0 | 25.0 | 0.00 | 0.00 | 0.00 | 29 | 1006.3 |
| 20260508220725 | 77 | 221 | 17.0 | 25.0 | 0.00 | 0.00 | 0.00 | 29 | 1006.5 |
| 20260508220236 | 78 | 228 | 10.0 | 14.0 | 0.00 | 0.00 | 0.00 | 28 | 1006.6 |
| 20260508220032 | 76 | 242 | 7.0 | 10.0 | 0.00 | 0.00 | 0.00 | 29 | 1005.6 |
| 20260508215746 | 76 | 234 | 7.0 | 13.0 | 0.00 | 0.00 | 0.00 | 29 | 1006.7 |
| 20260508215257 | 75 | 206 | 8.0 | 14.0 | 0.00 | 0.00 | 0.00 | 28 | 1006.6 |
| 20260508214747 | 76 | 180 | 9.0 | 14.0 | 0.00 | 0.00 | 0.00 | 28 | 1006.6 |
| 20260508214617 | 75 | 212 | 6.0 | 11.0 | 0.00 | 0.00 | 0.00 | 28 | 1005.5 |
| 20260508214233 | 76 | 168 | 4.0 | 15.0 | 0.00 | 0.00 | 0.00 | 27 | 1006.7 |
| 20260508213757 | 77 | 196 | 9.0 | 15.0 | 0.00 | 0.00 | 0.00 | 25 | 1006.7 |
| 20260508213247 | 77 | 90 | 8.0 | 16.0 | 0.00 | 0.00 | 0.00 | 28 | 1006.8 |
| 20260508213027 | 78 | 238 | 8.0 | 13.0 | 0.00 | 0.00 | 0.00 | 26 | 1005.8 |
| 20260508212729 | 79 | 209 | 8.0 | 13.0 | 0.00 | 0.00 | 0.00 | 25 | 1006.9 |
| 20260508212241 | 80 | 192 | 9.0 | 14.0 | 0.00 | 0.00 | 0.00 | 27 | 1006.9 |
| 20260508211723 | 79 | 222 | 9.0 | 14.0 | 0.00 | 0.00 | 0.00 | 27 | 1006.9 |
| 20260508211530 | 78 | 232 | 5.0 | 18.0 | 0.00 | 0.00 | 0.00 | 27 | 1005.9 |
| 20260508211236 | 79 | 262 | 10.0 | 18.0 | 0.00 | 0.00 | 0.00 | 26 | 1007.0 |
| 20260508210746 | 79 | 219 | 13.0 | 18.0 | 0.00 | 0.00 | 0.00 | 26 | 1007.1 |
| 20260508210230 | 78 | 263 | 10.0 | 16.0 | 0.00 | 0.00 | 0.00 | 27 | 1007.1 |
| 20260508210034 | 77 | 221 | 8.0 | 16.0 | 0.00 | 0.00 | 0.00 | 27 | 1006.1 |
| 20260508205735 | 79 | 244 | 9.0 | 16.0 | 0.00 | 0.00 | 0.00 | 28 | 1007.1 |
| 20260508205243 | 79 | 258 | 8.0 | 17.0 | 0.00 | 0.00 | 0.00 | 28 | 1007.2 |
| 20260508204726 | 80 | 253 | 11.0 | 20.0 | 0.00 | 0.00 | 0.00 | 27 | 1007.3 |
| 20260508204528 | 79 | 277 | 8.0 | 20.0 | 0.00 | 0.00 | 0.00 | 28 | 1006.3 |
| 20260508204300 | 80 | 236 | 13.0 | 20.0 | 0.00 | 0.00 | 0.00 | 26 | 1007.4 |
| 20260508203722 | 79 | 242 | 7.0 | 15.0 | 0.00 | 0.00 | 0.00 | 29 | 1007.5 |
| 20260508203234 | 78 | 240 | 4.0 | 17.0 | 0.00 | 0.00 | 0.00 | 23 | 1007.5 |
| 20260508203007 | 79 | 229 | 4.0 | 17.0 | 0.00 | 0.00 | 0.00 | 25 | 1006.5 |
| 20260508202745 | 80 | 136 | 8.0 | 17.0 | 0.00 | 0.00 | 0.00 | 26 | 1007.5 |
| 20260508202223 | 81 | 180 | 7.0 | 12.0 | 0.00 | 0.00 | 0.00 | 27 | 1007.6 |
| 20260508201733 | 79 | 217 | 8.0 | 14.0 | 0.00 | 0.00 | 0.00 | 26 | 1007.7 |
| 20260508201513 | 77 | 287 | 9.0 | 14.0 | 0.00 | 0.00 | 0.00 | 27 | 1006.7 |
| 20260508201248 | 77 | 317 | 10.0 | 14.0 | 0.00 | 0.00 | 0.00 | 29 | 1007.7 |
| 20260508200728 | 77 | 319 | 7.0 | 12.0 | 0.00 | 0.00 | 0.00 | 25 | 1007.9 |
| 20260508200238 | 77 | 349 | 8.0 | 16.0 | 0.00 | 0.00 | 0.00 | 29 | 1008.0 |
| 20260508200015 | 77 | 315 | 9.0 | 16.0 | 0.00 | 0.00 | 0.00 | 29 | 1007.0 |
| 20260508195747 | 76 | 308 | 11.0 | 16.0 | 0.00 | 0.00 | 0.00 | 27 | 1007.9 |
| 20260508195236 | 77 | 276 | 11.0 | 16.0 | 0.00 | 0.00 | 0.00 | 27 | 1008.0 |
| 20260508194742 | 78 | 261 | 6.0 | 15.0 | 0.00 | 0.00 | 0.00 | 27 | 1008.1 |
| 20260508194554 | 78 | 292 | 7.0 | 15.0 | 0.00 | 0.00 | 0.00 | 29 | 1007.1 |
| 20260508194226 | 79 | 351 | 8.0 | 15.0 | 0.00 | 0.00 | 0.00 | 25 | 1008.1 |
| 20260508193736 | 79 | 340 | 9.0 | 15.0 | 0.00 | 0.00 | 0.00 | 26 | 1008.2 |
| 20260508193226 | 80 | 317 | 12.0 | 15.0 | 0.00 | 0.00 | 0.00 | 26 | 1008.2 |
| 20260508193105 | 79 | 324 | 7.0 | 12.0 | 0.00 | 0.00 | 0.00 | 26 | 1007.2 |
| 20260508192736 | 79 | 299 | 6.0 | 9.0 | 0.00 | 0.00 | 0.00 | 30 | 1008.3 |
| 20260508192307 | 77 | 207 | 1.0 | 10.0 | 0.00 | 0.00 | 0.00 | 31 | 1008.3 |
| 20260508191730 | 77 | 205 | 4.0 | 10.0 | 0.00 | 0.00 | 0.00 | 31 | 1008.3 |
| 20260508191535 | 76 | 205 | 6.0 | 10.0 | 0.00 | 0.00 | 0.00 | 28 | 1007.4 |
| 20260508191238 | 76 | 224 | 7.0 | 14.0 | 0.00 | 0.00 | 0.00 | 29 | 1008.4 |
| 20260508190720 | 74 | 207 | 4.0 | 14.0 | 0.00 | 0.00 | 0.00 | 25 | 1008.5 |
| 20260508190233 | 76 | 271 | 9.0 | 13.0 | 0.00 | 0.00 | 0.00 | 25 | 1008.5 |
| 20260508190028 | 76 | 242 | 7.0 | 11.0 | 0.00 | 0.00 | 0.00 | 27 | 1007.6 |
| 20260508185805 | 76 | 205 | 7.0 | 12.0 | 0.00 | 0.00 | 0.00 | 27 | 1008.6 |
| 20260508185227 | 76 | 201 | 3.0 | 13.0 | 0.00 | 0.00 | 0.00 | 25 | 1008.7 |
| 20260508184737 | 77 | 222 | 9.0 | 13.0 | 0.00 | 0.00 | 0.00 | 29 | 1008.7 |
| 20260508184559 | 77 | 224 | 8.0 | 11.0 | 0.00 | 0.00 | 0.00 | 28 | 1007.7 |
| 20260508184502 | 77 | 270 | 5.0 | 11.0 | 0.00 | 0.00 | 0.00 | 27 | 1007.7 |
| 20260508184250 | 78 | 244 | 5.0 | 11.0 | 0.00 | 0.00 | 0.00 | 28 | 1008.7 |
| 20260508183730 | 78 | 207 | 4.0 | 10.0 | 0.00 | 0.00 | 0.00 | 24 | 1008.7 |
| 20260508183237 | 76 | 213 | 7.0 | 11.0 | 0.00 | 0.00 | 0.00 | 28 | 1008.8 |
| 20260508183001 | 76 | 222 | 5.0 | 11.0 | 0.00 | 0.00 | 0.00 | 25 | 1007.9 |
| 20260508182748 | 76 | 258 | 5.0 | 11.0 | 0.00 | 0.00 | 0.00 | 26 | 1008.9 |
| 20260508182232 | 76 | 200 | 5.0 | 9.0 | 0.00 | 0.00 | 0.00 | 26 | 1008.9 |
| 20260508181742 | 76 | 232 | 2.0 | 10.0 | 0.00 | 0.00 | 0.00 | 28 | 1008.9 |
| 20260508181507 | 76 | 232 | 4.0 | 10.0 | 0.00 | 0.00 | 0.00 | 28 | 1008.1 |
| 20260508181224 | 78 | 256 | 5.0 | 10.0 | 0.00 | 0.00 | 0.00 | 28 | 1009.0 |
| 20260508180732 | 78 | 348 | 4.0 | 6.0 | 0.00 | 0.00 | 0.00 | 26 | 1009.1 |
| 20260508180243 | 77 | 65 | 3.0 | 5.0 | 0.00 | 0.00 | 0.00 | 29 | 1009.1 |
| 20260508180044 | 77 | 65 | 1.0 | 6.0 | 0.00 | 0.00 | 0.00 | 30 | 1008.2 |
| 20260508175728 | 76 | 217 | 3.0 | 8.0 | 0.00 | 0.00 | 0.00 | 31 | 1009.1 |
| 20260508175254 | 75 | 126 | 4.0 | 8.0 | 0.00 | 0.00 | 0.00 | 25 | 1009.1 |
| 20260508174745 | 75 | 95 | 6.0 | 9.0 | 0.00 | 0.00 | 0.00 | 30 | 1009.2 |
| 20260508174611 | 74 | 81 | 3.0 | 9.0 | 0.00 | 0.00 | 0.00 | 28 | 1008.3 |
| 20260508174236 | 75 | 108 | 6.0 | 9.0 | 0.00 | 0.00 | 0.00 | 28 | 1009.3 |
| 20260508173747 | 75 | 99 | 4.0 | 6.0 | 0.00 | 0.00 | 0.00 | 29 | 1009.4 |
| 20260508173229 | 74 | 103 | 3.0 | 7.0 | 0.00 | 0.00 | 0.00 | 30 | 1009.4 |
| 20260508173006 | 73 | 5 | 3.0 | 8.0 | 0.00 | 0.00 | 0.00 | 29 | 1008.5 |
| 20260508172741 | 74 | 28 | 4.0 | 8.0 | 0.00 | 0.00 | 0.00 | 27 | 1009.4 |
| 20260508172221 | 75 | 5 | 5.0 | 8.0 | 0.00 | 0.00 | 0.00 | 27 | 1009.5 |
| 20260508171754 | 75 | 28 | 2.0 | 5.0 | 0.00 | 0.00 | 0.00 | 31 | 1009.5 |
| 20260508171551 | 74 | 279 | 1.0 | 6.0 | 0.00 | 0.00 | 0.00 | 30 | 1008.6 |
| 20260508171244 | 74 | 279 | 1.0 | 8.0 | 0.00 | 0.00 | 0.00 | 28 | 1009.6 |
| 20260508170726 | 74 | 19 | 5.0 | 10.0 | 0.00 | 0.00 | 0.00 | 26 | 1009.6 |
| 20260508170237 | 75 | 17 | 6.0 | 10.0 | 0.00 | 0.00 | 0.00 | 32 | 1009.6 |
| 20260508170054 | 74 | 355 | 3.0 | 10.0 | 0.00 | 0.00 | 0.00 | 31 | 1008.6 |
| 20260508170003 | 74 | 342 | 3.0 | 10.0 | 0.00 | 0.00 | 0.00 | 31 | 1008.6 |
| 20260508165720 | 74 | 202 | 1.0 | 10.0 | 0.00 | 0.00 | 0.00 | 31 | 1009.6 |
| 20260508165233 | 75 | 48 | 5.0 | 10.0 | 0.00 | 0.00 | 0.00 | 29 | 1009.6 |
| 20260508164741 | 76 | 317 | 4.0 | 11.0 | 0.00 | 0.00 | 0.00 | 29 | 1009.6 |
| 20260508164516 | 75 | 360 | 7.0 | 11.0 | 0.00 | 0.00 | 0.00 | 27 | 1008.6 |
| 20260508164225 | 75 | 63 | 7.0 | 11.0 | 0.00 | 0.00 | 0.00 | 28 | 1009.5 |
| 20260508163754 | 76 | 320 | 4.0 | 8.0 | 0.00 | 0.00 | 0.00 | 33 | 1009.6 |
| 20260508163244 | 74 | 134 | 3.0 | 8.0 | 0.00 | 0.00 | 0.00 | 37 | 1009.7 |
| 20260508163042 | 73 | 134 | 2.0 | 8.0 | 0.00 | 0.00 | 0.00 | 32 | 1008.7 |
| 20260508162728 | 74 | 93 | 6.0 | 8.0 | 0.00 | 0.00 | 0.00 | 32 | 1009.7 |
| 20260508162240 | 72 | 60 | 2.0 | 5.0 | 0.00 | 0.00 | 0.00 | 35 | 1009.6 |
| 20260508161749 | 73 | 120 | 1.0 | 9.0 | 0.00 | 0.00 | 0.00 | 36 | 1009.7 |
| 20260508161534 | 72 | 120 | 3.0 | 9.0 | 0.00 | 0.00 | 0.00 | 34 | 1008.7 |
| 20260508161238 | 73 | 140 | 5.0 | 9.0 | 0.00 | 0.00 | 0.00 | 35 | 1009.6 |
| 20260508160721 | 72 | 134 | 2.0 | 6.0 | 0.00 | 0.00 | 0.00 | 35 | 1009.7 |
| 20260508160253 | 73 | 143 | 2.0 | 6.0 | 0.00 | 0.00 | 0.00 | 40 | 1009.8 |
| 20260508160014 | 71 | 162 | 2.0 | 8.0 | 0.00 | 0.00 | 0.00 | 36 | 1008.8 |
| 20260508155743 | 71 | 227 | 2.0 | 8.0 | 0.00 | 0.00 | 0.00 | 39 | 1009.9 |
| 20260508155227 | 72 | 202 | 5.0 | 8.0 | 0.00 | 0.00 | 0.00 | 41 | 1009.8 |
| 20260508154739 | 70 | 130 | 4.0 | 7.0 | 0.00 | 0.00 | 0.00 | 45 | 1009.9 |
| 20260508154515 | 70 | 163 | 3.0 | 8.0 | 0.00 | 0.00 | 0.00 | 42 | 1009.0 |
| 20260508154225 | 70 | 161 | 3.0 | 8.0 | 0.00 | 0.00 | 0.00 | 46 | 1009.9 |
| 20260508153733 | 69 | 171 | 4.0 | 11.0 | 0.00 | 0.00 | 0.00 | 42 | 1010.0 |
| 20260508153240 | 68 | 184 | 3.0 | 11.0 | 0.00 | 0.00 | 0.00 | 47 | 1010.0 |
| 20260508153051 | 67 | 157 | 5.0 | 11.0 | 0.00 | 0.00 | 0.00 | 44 | 1009.1 |
| 20260508152723 | 68 | 155 | 5.0 | 8.0 | 0.00 | 0.00 | 0.00 | 45 | 1010.1 |
| 20260508152233 | 66 | 146 | 4.0 | 8.0 | 0.00 | 0.00 | 0.00 | 47 | 1010.0 |
| 20260508151745 | 65 | 144 | 4.0 | 8.0 | 0.00 | 0.00 | 0.00 | 47 | 1009.9 |
| 20260508151601 | 65 | 144 | 5.0 | 8.0 | 0.00 | 0.00 | 0.00 | 48 | 1009.1 |
| 20260508151230 | 65 | 153 | 5.0 | 8.0 | 0.00 | 0.00 | 0.00 | 47 | 1009.9 |
| 20260508150801 | 66 | 148 | 5.0 | 11.0 | 0.00 | 0.00 | 0.00 | 46 | 1009.9 |
| 20260508150223 | 65 | 175 | 6.0 | 11.0 | 0.00 | 0.00 | 0.00 | 45 | 1010.0 |
| 20260508150043 | 65 | 165 | 7.0 | 11.0 | 0.00 | 0.00 | 0.00 | 43 | 1009.1 |
| 20260508145729 | 65 | 147 | 8.0 | 10.0 | 0.00 | 0.00 | 0.00 | 45 | 1010.0 |
| 20260508145241 | 64 | 172 | 5.0 | 9.0 | 0.00 | 0.00 | 0.00 | 53 | 1010.0 |
| 20260508144724 | 64 | 147 | 6.0 | 9.0 | 0.00 | 0.00 | 0.00 | 46 | 1010.1 |
| 20260508144546 | 64 | 124 | 6.0 | 11.0 | 0.00 | 0.00 | 0.00 | 48 | 1009.2 |
| 20260508144257 | 63 | 156 | 5.0 | 11.0 | 0.00 | 0.00 | 0.00 | 50 | 1010.2 |
| 20260508143747 | 62 | 160 | 6.0 | 12.0 | 0.00 | 0.00 | 0.00 | 52 | 1010.2 |
| 20260508143257 | 61 | 169 | 5.0 | 7.0 | 0.00 | 0.00 | 0.00 | 52 | 1010.3 |
| 20260508143053 | 61 | 170 | 4.0 | 7.0 | 0.00 | 0.00 | 0.00 | 51 | 1009.5 |
| 20260508142742 | 61 | 152 | 2.0 | 5.0 | 0.00 | 0.00 | 0.00 | 53 | 1010.3 |
| 20260508142225 | 61 | 152 | 1.0 | 7.0 | 0.00 | 0.00 | 0.00 | 54 | 1010.3 |
| 20260508141739 | 61 | 159 | 3.0 | 7.0 | 0.00 | 0.00 | 0.00 | 57 | 1010.3 |
| 20260508141555 | 60 | 163 | 3.0 | 7.0 | 0.00 | 0.00 | 0.00 | 55 | 1009.4 |
| 20260508141249 | 60 | 180 | 4.0 | 6.0 | 0.00 | 0.00 | 0.00 | 55 | 1010.2 |
| 20260508140730 | 59 | 166 | 4.0 | 7.0 | 0.00 | 0.00 | 0.00 | 57 | 1010.2 |
| 20260508140241 | 58 | 184 | 5.0 | 7.0 | 0.00 | 0.00 | 0.00 | 59 | 1010.3 |
| 20260508140044 | 57 | 171 | 2.0 | 4.0 | 0.00 | 0.00 | 0.00 | 60 | 1009.4 |
| 20260508135724 | 57 | 171 | 2.0 | 4.0 | 0.00 | 0.00 | 0.00 | 63 | 1010.3 |
| 20260508135232 | 55 | 171 | 1.0 | 4.0 | 0.00 | 0.00 | 0.00 | 65 | 1010.2 |
| 20260508134744 | 55 | 171 | 2.0 | 4.0 | 0.00 | 0.00 | 0.00 | 67 | 1010.3 |
| 20260508134528 | 54 | 171 | 2.0 | 5.0 | 0.00 | 0.00 | 0.00 | 66 | 1009.4 |
| 20260508134227 | 54 | 171 | 2.0 | 6.0 | 0.00 | 0.00 | 0.00 | 64 | 1010.3 |
| 20260508133736 | 54 | 171 | 4.0 | 6.0 | 0.00 | 0.00 | 0.00 | 64 | 1010.4 |
| 20260508133247 | 54 | 171 | 3.0 | 5.0 | 0.00 | 0.00 | 0.00 | 62 | 1010.4 |
| 20260508133031 | 54 | 178 | 1.0 | 3.0 | 0.00 | 0.00 | 0.00 | 62 | 1009.6 |
| 20260508132728 | 54 | 178 | 2.0 | 5.0 | 0.00 | 0.00 | 0.00 | 62 | 1010.4 |
| 20260508132240 | 54 | 178 | 2.0 | 6.0 | 0.00 | 0.00 | 0.00 | 62 | 1010.4 |
| 20260508131724 | 54 | 175 | 4.0 | 7.0 | 0.00 | 0.00 | 0.00 | 61 | 1010.4 |
| 20260508131542 | 53 | 185 | 4.0 | 7.0 | 0.00 | 0.00 | 0.00 | 61 | 1009.6 |
| 20260508131232 | 54 | 189 | 4.0 | 7.0 | 0.00 | 0.00 | 0.00 | 60 | 1010.3 |
| 20260508130741 | 54 | 162 | 4.0 | 8.0 | 0.00 | 0.00 | 0.00 | 59 | 1010.2 |
| 20260508130310 | 54 | 157 | 5.0 | 7.0 | 0.00 | 0.00 | 0.00 | 58 | 1010.0 |
| 20260508130023 | 53 | 172 | 3.0 | 5.0 | 0.00 | 0.00 | 0.00 | 59 | 1009.2 |
| 20260508125731 | 53 | 172 | 3.0 | 5.0 | 0.00 | 0.00 | 0.00 | 58 | 1010.0 |
| 20260508125244 | 53 | 173 | 3.0 | 7.0 | 0.00 | 0.00 | 0.00 | 59 | 1009.9 |
| 20260508124727 | 53 | 218 | 4.0 | 7.0 | 0.00 | 0.00 | 0.00 | 58 | 1009.9 |
| 20260508124534 | 53 | 134 | 4.0 | 7.0 | 0.00 | 0.00 | 0.00 | 58 | 1009.1 |
| 20260508124243 | 53 | 158 | 5.0 | 7.0 | 0.00 | 0.00 | 0.00 | 58 | 1009.9 |
| 20260508123727 | 53 | 176 | 4.0 | 6.0 | 0.00 | 0.00 | 0.00 | 58 | 1009.9 |
| 20260508123235 | 52 | 158 | 2.0 | 8.0 | 0.00 | 0.00 | 0.00 | 58 | 1009.9 |
| 20260508123029 | 52 | 279 | 0.0 | 8.0 | 0.00 | 0.00 | 0.00 | 58 | 1009.1 |